Location: Seven Kings
(51.5667°N, 0.1000°E)
Time: 03:46:38
(UTC+00:00)

Cosmos 1745 Rocket - Pass Details

Date: 29 October 2020
Orbit: 953 x 997 km, 83.0° (Epoch: 24 November)

Event Time Altitude Azimuth Distance (km) Brightness Sun altitude
Rises 18:05:28 0° 350° (N) 3,693 7.1 -14.2°
Reaches altitude 10° 18:08:00 10° 353° (N) 2,747 6.4 -14.6°
Maximum altitude 18:14:18 73° 78° (ENE) 1,036 3.9 -15.5°
Drops below altitude 10° 18:20:38 10° 163° (SSE) 2,754 6.2 -16.5°
Sets 18:23:10 0° 166° (SSE) 3,702 6.9 -16.9°
